Weather History for Dodge City, KS

Change the Weather History Date:

Friday, February 22, 2013

  Actual Average Record
Temperature  
Mean Temperature 15 °F -  
Max Temperature 27 °F 50 °F 84 °F (1982)
Min Temperature 3 °F 26 °F -3 °F (1911)
Degree Days  
Heating Degree Days 50    
Moisture  
Dew Point 9 °F    
Average Humidity 77    
Maximum Humidity 88    
Minimum Humidity 54    
Precipitation  
Precipitation 0.00 in - - ()
Sea Level Pressure  
Sea Level Pressure 30.11 in    
Wind  
Wind Speed 12 mph (WNW)    
Max Wind Speed 20 mph    
Max Gust Speed -    
Visibility 9 miles    
Events      
Averages and records for this station are not official NWS values.
T = Trace of Precipitation, MM = Missing Value Source: NWS Daily Summary

Daily Weather History Graph

Daily Weather History Graph

Search for Another Location

Airport:

Trip Planner

Search our weather history database for the weather conditions in past years. The results will help you decide how hot, cold, wet, or windy it might be!

Date:

Astronomy

Feb. 22, 2013 Rise Set
Actual Time 7:20 AM CST 6:26 PM CST
Civil Twilight 6:53 AM CST 6:53 PM CST
Nautical Twilight 6:23 AM CST 7:23 PM CST
Astronomical Twilight 5:53 AM CST 7:54 PM CST
Moon 3:41 PM CST (2/22) 5:04 AM CST (2/22)
Length of Visible Light 11h 59m
Length of Day
11h 06m
Waxing Gibbous, 90% of the Moon is Illuminated
Feb 22
Waxing Gibbous
Feb 25
Full
Mar 4
Last Quarter
Mar 11
New
Mar 19
First Quarter

Hourly Weather History & Observations

Time (CST) Temp. Windchill Dew Point Humidity Pressure Visibility Wind Dir Wind Speed Gust Speed Precip Events Conditions
12:52 AM 8.1 °F -9.6 °F 3.0 °F 80% 30.02 in 10.0 mi NNW 16.1 mph - N/A   Clear
1:52 AM 7.0 °F -10.4 °F 3.0 °F 84% 30.06 in 10.0 mi NW 15.0 mph - N/A   Clear
2:52 AM 7.0 °F -11.6 °F 3.0 °F 84% 30.07 in 10.0 mi WNW 17.3 mph - N/A   Clear
3:52 AM 3.9 °F -16.6 °F -0.0 °F 84% 30.04 in 10.0 mi NW 19.6 mph - N/A   Clear
4:52 AM 5.0 °F -11.6 °F 1.0 °F 84% 30.06 in 10.0 mi NW 12.7 mph - N/A   Clear
5:52 AM 6.8 °F -7.8 °F 1.4 °F 79% 29.96 in 10.0 mi NW 10.4 mph - N/A   Clear
6:52 AM 3.9 °F -11.3 °F -0.0 °F 84% 30.11 in 10.0 mi WNW 10.4 mph - N/A   Clear
7:52 AM 5.0 °F -12.3 °F 1.0 °F 84% 30.14 in 10.0 mi WNW 13.8 mph - N/A   Clear
8:52 AM 6.1 °F -11.6 °F 1.9 °F 83% 30.14 in 10.0 mi NW 15.0 mph - N/A   Clear
9:52 AM 10.9 °F -5.4 °F 6.1 °F 81% 30.14 in 10.0 mi NW 15.0 mph - N/A   Clear
10:52 AM 15.1 °F 3.3 °F 9.0 °F 77% 30.16 in 10.0 mi NW 9.2 mph - N/A   Clear
11:52 AM 19.9 °F 8.6 °F 12.9 °F 74% 30.17 in 10.0 mi NW 10.4 mph - N/A   Clear
12:52 PM 23.0 °F 14.7 °F 15.1 °F 72% 30.15 in 10.0 mi WNW 6.9 mph - N/A   Clear
1:52 PM 25.0 °F 18.1 °F 16.0 °F 69% 30.14 in 10.0 mi NW 5.8 mph - N/A   Clear
2:52 PM 26.1 °F 20.5 °F 16.0 °F 66% 30.12 in 10.0 mi NW 4.6 mph - N/A   Clear
3:52 PM 26.1 °F 21.9 °F 16.0 °F 66% 30.12 in 10.0 mi NW 3.5 mph - N/A   Clear
4:52 PM 24.1 °F - 16.0 °F 71% 30.11 in 10.0 mi Calm Calm - N/A   Clear
5:52 PM 23.0 °F 18.4 °F 15.1 °F 72% 30.11 in 10.0 mi West 3.5 mph - N/A   Clear
6:52 PM 19.0 °F 11.1 °F 14.0 °F 81% 30.13 in 10.0 mi SSW 5.8 mph - N/A   Clear
7:52 PM 17.1 °F 10.0 °F 14.0 °F 88% 30.14 in 6.0 mi SSW 4.6 mph - N/A   Clear
8:52 PM 17.1 °F 11.7 °F 12.9 °F 84% 30.14 in 7.0 mi SSW 3.5 mph - N/A   Clear
9:52 PM 15.1 °F 5.2 °F 12.0 °F 88% 30.14 in 7.0 mi SSW 6.9 mph - N/A   Clear
10:52 PM 16.0 °F 7.4 °F 12.0 °F 84% 30.12 in 6.0 mi SSW 5.8 mph - N/A   Clear
11:52 PM 12.9 °F 6.9 °F 10.0 °F 88% 30.10 in 4.0 mi SSW 3.5 mph - N/A   Clear